| time (UTC) | temp F | wind direction | speed knots | gust knots | rain 1hr in | rain 24hr in | rain mn in | humidity % | barometer mb |
| 20260902161558 | 65 | 0 | 0.0 | 2.6 | 0.00 | 0.00 | 0.00 | 69 | 1006.9 |
| 20260902160104 | 64 | 0 | 0.0 | 0.9 | 0.00 | 0.00 | 0.00 | 76 | 1007.1 |
| 20260902154558 | 63 | 4 | 0.0 | 0.9 | 0.00 | 0.00 | 0.00 | 78 | 1007.2 |
| 20260902153101 | 61 | 0 | 0.0 | 0.9 | 0.00 | 0.00 | 0.00 | 80 | 1007.4 |
| 20260902151602 | 60 | 0 | 0.0 | 0.9 | 0.00 | 0.00 | 0.00 | 83 | 1007.7 |
| 20260902150058 | 59 | 0 | 0.0 | 0.0 | 0.00 | 0.00 | 0.00 | 85 | 1007.8 |
| 20260902144556 | 59 | 0 | 0.0 | 0.9 | 0.00 | 0.00 | 0.00 | 85 | 1008.0 |
| 20260902143107 | 58 | 0 | 0.0 | 0.0 | 0.00 | 0.00 | 0.00 | 86 | 1008.1 |
| 20260902141556 | 57 | 0 | 0.0 | 0.0 | 0.00 | 0.00 | 0.00 | 86 | 1008.2 |
| 20260902140056 | 57 | 0 | 0.0 | 0.0 | 0.00 | 0.00 | 0.00 | 86 | 1008.2 |
| 20260902134557 | 57 | 0 | 0.0 | 0.0 | 0.00 | 0.00 | 0.00 | 86 | 1008.2 |
| 20260902133057 | 58 | 0 | 0.0 | 0.0 | 0.00 | 0.00 | 0.00 | 86 | 1008.2 |
| 20260902131555 | 59 | 0 | 0.0 | 0.0 | 0.00 | 0.00 | 0.00 | 86 | 1008.3 |
| 20260902130105 | 59 | 0 | 0.0 | 0.0 | 0.00 | 0.00 | 0.00 | 86 | 1008.5 |
| 20260902124607 | 59 | 0 | 0.0 | 0.0 | 0.00 | 0.00 | 0.00 | 86 | 1008.5 |
| 20260902123102 | 59 | 0 | 0.0 | 0.0 | 0.00 | 0.00 | 0.00 | 86 | 1008.7 |
| 20260902121608 | 59 | 0 | 0.0 | 0.0 | 0.00 | 0.00 | 0.00 | 86 | 1008.6 |
| 20260902120104 | 59 | 0 | 0.0 | 0.0 | 0.00 | 0.00 | 0.00 | 86 | 1008.8 |
| 20260902114559 | 59 | 0 | 0.0 | 0.9 | 0.00 | 0.00 | 0.00 | 86 | 1008.9 |
| 20260902113111 | 58 | 0 | 0.0 | 0.0 | 0.00 | 0.00 | 0.00 | 86 | 1008.9 |
| 20260902111603 | 59 | 0 | 0.0 | 0.0 | 0.00 | 0.00 | 0.00 | 86 | 1009.1 |
| 20260902110121 | 59 | 180 | 0.0 | 0.0 | 0.00 | 0.00 | 0.00 | 86 | 1009.2 |
| 20260902104601 | 59 | 0 | 0.0 | 0.0 | 0.00 | 0.00 | 0.00 | 86 | 1009.2 |
| 20260902103102 | 59 | 0 | 0.0 | 0.0 | 0.00 | 0.00 | 0.00 | 86 | 1009.4 |
| 20260902101606 | 59 | 0 | 0.0 | 0.9 | 0.00 | 0.00 | 0.00 | 86 | 1009.6 |
| 20260902100110 | 59 | 0 | 0.0 | 0.0 | 0.00 | 0.00 | 0.00 | 86 | 1009.5 |
| 20260902094556 | 60 | 0 | 0.0 | 0.0 | 0.00 | 0.00 | 0.00 | 86 | 1009.5 |
| 20260902093057 | 60 | 0 | 0.0 | 0.0 | 0.00 | 0.00 | 0.00 | 86 | 1009.6 |
| 20260902091556 | 60 | 0 | 0.0 | 0.9 | 0.00 | 0.00 | 0.00 | 86 | 1009.6 |
| 20260902090056 | 61 | 0 | 0.0 | 0.0 | 0.00 | 0.00 | 0.00 | 85 | 1009.9 |
| 20260902084602 | 61 | 0 | 0.0 | 0.0 | 0.00 | 0.00 | 0.00 | 85 | 1010.1 |
| 20260902083100 | 61 | 0 | 0.0 | 0.0 | 0.00 | 0.00 | 0.00 | 85 | 1010.2 |
| 20260902081603 | 61 | 0 | 0.0 | 0.0 | 0.00 | 0.00 | 0.00 | 85 | 1010.2 |
| 20260902080054 | 61 | 0 | 0.0 | 0.0 | 0.00 | 0.00 | 0.00 | 85 | 1010.3 |
| 20260902074553 | 61 | 0 | 0.0 | 0.9 | 0.00 | 0.00 | 0.00 | 85 | 1010.3 |
| 20260902073058 | 61 | 0 | 0.0 | 0.0 | 0.00 | 0.00 | 0.00 | 85 | 1010.4 |
| 20260902071600 | 61 | 0 | 0.0 | 0.9 | 0.00 | 0.00 | 0.00 | 85 | 1010.4 |
| 20260902064610 | 61 | 0 | 0.0 | 0.9 | 0.00 | 0.00 | 0.00 | 85 | 1010.7 |
| 20260902063102 | 61 | 0 | 0.0 | 0.9 | 0.00 | 0.00 | 0.00 | 85 | 1010.7 |
| 20260902060114 | 61 | 0 | 0.0 | 0.9 | 0.00 | 0.00 | 0.00 | 84 | 1010.7 |
| 20260902054558 | 61 | 207 | 0.0 | 1.7 | 0.00 | 0.00 | 0.00 | 85 | 1010.8 |
| 20260902053112 | 61 | 0 | 0.0 | 0.0 | 0.00 | 0.00 | 0.00 | 85 | 1010.9 |
| 20260902051603 | 61 | 0 | 0.0 | 0.9 | 0.00 | 0.00 | 0.00 | 85 | 1010.9 |
| 20260902050121 | 61 | 0 | 0.0 | 0.0 | 0.00 | 0.00 | 0.00 | 85 | 1010.9 |
| 20260902044607 | 61 | 0 | 0.0 | 0.0 | 0.00 | 0.00 | 0.00 | 85 | 1010.8 |
| 20260902043105 | 61 | 0 | 0.0 | 0.9 | 0.00 | 0.00 | 0.00 | 85 | 1010.9 |
| 20260902041611 | 61 | 0 | 0.0 | 0.9 | 0.00 | 0.00 | 0.00 | 85 | 1010.9 |
| 20260902040103 | 61 | 0 | 0.0 | 0.0 | 0.00 | 0.00 | 0.00 | 85 | 1010.9 |
| 20260902034557 | 61 | 0 | 0.0 | 1.7 | 0.00 | 0.00 | 0.00 | 85 | 1010.9 |
| 20260902033102 | 63 | 0 | 0.0 | 4.3 | 0.00 | 0.00 | 0.00 | 82 | 1011.0 |
| 20260902031601 | 64 | 191 | 1.7 | 5.2 | 0.00 | 0.00 | 0.00 | 76 | 1010.8 |
| 20260902030103 | 65 | 167 | 1.7 | 4.3 | 0.00 | 0.00 | 0.00 | 73 | 1010.6 |
| 20260902024555 | 65 | 180 | 0.0 | 2.6 | 0.00 | 0.00 | 0.00 | 73 | 1010.4 |
| 20260902023055 | 66 | 166 | 0.9 | 4.3 | 0.00 | 0.00 | 0.00 | 73 | 1010.5 |
| 20260902021556 | 66 | 237 | 0.0 | 1.7 | 0.00 | 0.00 | 0.00 | 73 | 1010.4 |
| 20260902020105 | 66 | 166 | 0.0 | 3.5 | 0.00 | 0.00 | 0.00 | 72 | 1010.4 |
| 20260902014557 | 66 | 0 | 0.0 | 2.6 | 0.00 | 0.00 | 0.00 | 72 | 1010.6 |
| 20260902013054 | 66 | 175 | 0.9 | 5.2 | 0.00 | 0.00 | 0.00 | 72 | 1010.6 |
| 20260902011600 | 67 | 162 | 1.7 | 5.2 | 0.00 | 0.00 | 0.00 | 69 | 1010.5 |
| 20260902010116 | 67 | 0 | 0.9 | 2.6 | 0.00 | 0.00 | 0.00 | 69 | 1010.4 |
| 20260902004605 | 67 | 180 | 1.7 | 5.2 | 0.00 | 0.00 | 0.00 | 69 | 1010.6 |
| 20260902003102 | 68 | 233 | 1.7 | 7.8 | 0.00 | 0.00 | 0.00 | 69 | 1010.7 |
| 20260902001622 | 68 | 327 | 1.7 | 4.3 | 0.00 | 0.00 | 0.00 | 68 | 1010.5 |
| 20260902000057 | 68 | 198 | 1.7 | 6.1 | 0.00 | 0.00 | 0.00 | 68 | 1010.4 |
| 20260901234601 | 67 | 200 | 1.7 | 5.2 | 0.00 | 0.00 | 0.00 | 69 | 1010.3 |
| 20260901233059 | 67 | 181 | 0.9 | 2.6 | 0.00 | 0.00 | 0.00 | 70 | 1010.4 |
| 20260901231559 | 67 | 176 | 0.9 | 3.5 | 0.00 | 0.00 | 0.00 | 69 | 1010.5 |
| 20260901230104 | 67 | 157 | 0.9 | 2.6 | 0.00 | 0.00 | 0.00 | 70 | 1010.4 |
| 20260901224605 | 66 | 154 | 1.7 | 5.2 | 0.00 | 0.00 | 0.00 | 71 | 1010.5 |
| 20260901223105 | 67 | 210 | 0.9 | 4.3 | 0.00 | 0.00 | 0.00 | 70 | 1010.4 |
| 20260901221604 | 67 | 164 | 0.9 | 3.5 | 0.00 | 0.00 | 0.00 | 71 | 1010.5 |
| 20260901220106 | 67 | 0 | 0.9 | 4.3 | 0.00 | 0.00 | 0.00 | 71 | 1010.5 |
| 20260901214604 | 67 | 183 | 1.7 | 4.3 | 0.00 | 0.00 | 0.00 | 70 | 1010.4 |
| 20260901213122 | 67 | 200 | 0.0 | 2.6 | 0.00 | 0.00 | 0.00 | 70 | 1010.4 |
| 20260901211603 | 67 | 0 | 0.0 | 4.3 | 0.00 | 0.00 | 0.00 | 71 | 1010.6 |
| 20260901210118 | 68 | 153 | 0.9 | 3.5 | 0.00 | 0.00 | 0.00 | 70 | 1010.8 |
| 20260901204603 | 68 | 345 | 0.0 | 2.6 | 0.00 | 0.00 | 0.00 | 68 | 1010.8 |
| 20260901203103 | 68 | 186 | 0.9 | 5.2 | 0.00 | 0.00 | 0.00 | 68 | 1010.9 |
| 20260901201555 | 69 | 162 | 0.9 | 2.6 | 0.00 | 0.00 | 0.00 | 67 | 1010.8 |
| 20260901200110 | 69 | 203 | 0.9 | 3.5 | 0.00 | 0.00 | 0.00 | 67 | 1010.9 |
| 20260901194558 | 68 | 226 | 1.7 | 5.2 | 0.00 | 0.00 | 0.00 | 68 | 1011.0 |
| 20260901193057 | 67 | 203 | 1.7 | 4.3 | 0.00 | 0.00 | 0.00 | 70 | 1011.0 |
| 20260901191601 | 67 | 133 | 1.7 | 7.0 | 0.00 | 0.00 | 0.00 | 71 | 1011.0 |
| 20260901190111 | 66 | 158 | 1.7 | 5.2 | 0.00 | 0.00 | 0.00 | 71 | 1011.0 |
| 20260901184605 | 66 | 233 | 1.7 | 7.0 | 0.00 | 0.00 | 0.00 | 71 | 1011.1 |
| 20260901183108 | 66 | 184 | 0.9 | 6.1 | 0.00 | 0.00 | 0.00 | 73 | 1011.0 |
| 20260901181602 | 65 | 106 | 0.9 | 3.5 | 0.00 | 0.00 | 0.00 | 74 | 1011.0 |
| 20260901180058 | 64 | 209 | 1.7 | 7.0 | 0.00 | 0.00 | 0.00 | 75 | 1010.9 |
| 20260901174603 | 63 | 169 | 0.9 | 6.1 | 0.00 | 0.00 | 0.00 | 78 | 1010.8 |
| 20260901173101 | 63 | 190 | 0.9 | 9.6 | 0.00 | 0.00 | 0.00 | 79 | 1010.6 |
| 20260901171603 | 62 | 158 | 0.0 | 3.5 | 0.00 | 0.00 | 0.00 | 81 | 1010.7 |
| 20260901170109 | 61 | 205 | 0.0 | 3.5 | 0.00 | 0.00 | 0.00 | 82 | 1010.8 |
| 20260901164607 | 60 | 198 | 0.9 | 3.5 | 0.00 | 0.00 | 0.00 | 83 | 1010.9 |
| 20260901163108 | 60 | 167 | 0.9 | 4.3 | 0.00 | 0.00 | 0.00 | 83 | 1011.0 |